This is the latest recevied weather packets stored in our database for station/object KC5DAQ-28. If no packets are shown the sender has not sent any weather packets the latest 1 day(s).
| Time | Temp. | Humidity | Pressure | Rain* | Wind** | Luminosity | Snow |
|---|---|---|---|---|---|---|---|
| 1778046544 | 25° C | 89% | 1003.5 hPa | 0 mm | 0.45 m/s, 176° | 0 W/m² | - |
| 1778046483 | 25° C | 89% | 1003.6 hPa | 0 mm | 0.89 m/s, 179° | 0 W/m² | - |
| 1778046423 | 25° C | 89% | 1003.6 hPa | 0 mm | 1.34 m/s, 144° | 0 W/m² | - |
| 1778046364 | 25° C | 89% | 1003.6 hPa | 0 mm | 1.34 m/s, 142° | 0 W/m² | - |
| 1778046303 | 25° C | 89% | 1003.6 hPa | 0 mm | 0.45 m/s, 159° | 0 W/m² | - |
| 1778046243 | 25° C | 89% | 1003.6 hPa | 0 mm | 0.45 m/s, 155° | 0 W/m² | - |
| 1778046182 | 25° C | 89% | 1003.5 hPa | 0 mm | 1.34 m/s, 155° | 0 W/m² | - |
| 1778046123 | 25° C | 89% | 1003.5 hPa | 0 mm | 0.89 m/s, 185° | 0 W/m² | - |
| 1778046064 | 25° C | 89% | 1003.5 hPa | 0 mm | 0.45 m/s, 178° | 0 W/m² | - |
| 1778046002 | 25° C | 89% | 1003.5 hPa | 0 mm | 0 m/s | 0 W/m² | - |
| 1778045944 | 25° C | 89% | 1003.5 hPa | 0 mm | 0 m/s | 0 W/m² | - |
| 1778045883 | 25° C | 89% | 1003.4 hPa | 0 mm | 0.45 m/s, 169° | 0 W/m² | - |
| 1778045824 | 25° C | 89% | 1003.5 hPa | 0 mm | 0.45 m/s, 169° | 0 W/m² | - |
| 1778045763 | 25° C | 89% | 1003.5 hPa | 0 mm | 0 m/s | 0 W/m² | - |
| 1778045706 | 25° C | 89% | 1003.4 hPa | 0 mm | 0 m/s | 0 W/m² | - |
| 1778045643 | 25° C | 89% | 1003.4 hPa | 0 mm | 0 m/s | 0 W/m² | - |
| 1778045582 | 25° C | 89% | 1003.4 hPa | 0 mm | 0.45 m/s, 190° | 0 W/m² | - |
| 1778045523 | 25° C | 89% | 1003.4 hPa | 0 mm | 0.45 m/s, 190° | 0 W/m² | - |
| 1778045462 | 25° C | 89% | 1003.4 hPa | 0 mm | 0.89 m/s, 199° | 0 W/m² | - |
| 1778045405 | 25° C | 89% | 1003.4 hPa | 0 mm | 0.89 m/s, 165° | 0 W/m² | - |
| 1778045342 | 25° C | 89% | 1003.4 hPa | 0 mm | 0.45 m/s, 165° | 0 W/m² | - |
| 1778045283 | 25° C | 89% | 1003.3 hPa | 0 mm | 0.45 m/s, 182° | 0 W/m² | - |
| 1778045222 | 25° C | 89% | 1003.3 hPa | 0 mm | 0.45 m/s, 183° | 0 W/m² | - |
| 1778045162 | 25° C | 89% | 1003.3 hPa | 0 mm | 0.89 m/s, 185° | 0 W/m² | - |
| 1778045104 | 25° C | 89% | 1003.3 hPa | 0 mm | 0.89 m/s, 189° | 0 W/m² | - |
* Rain latest hour (hover to see other rain measurements)
** Current wind speed in m/s (hover to see current wind gust speed)